Zurück zum Katalog

SL-14 R/B

AktivPO
NORAD 13272·ROCKET BODY·🇷🇺 Russia

Gestartet Jun 10, 1982 von Plesetsk Cosmodrome

Loading…

Nächste Überflüge (nächste 24 Stunden)

TLE

AktuellSource: Space-Track

Epoche: Sep 14, 2026, 13:30 UTC

1 13272U 82059B   26257.56284800  .00000343  00000-0  35097-4 0  9992
2 13272  82.5110 202.8280 0019152 113.0439 247.2800 14.87308044372010

Verfolge SL-14 R/B in Echtzeit mit AllMySat

Download on the App Store